User: anonymous   Login
Location: Unspecified
(0.0000°N, 0.0000°E)
Time: 15:56:57
(UTC+00:00)
Language:

ZHUHAI-1 OVS-02 - Orbit

View from above orbital plane
View from above orbital plane
View from above satellite
View from above satellite

Ground track
Ground track

The orbit data is extracted from the following two-line orbital elements,

1 43440U 18040B   22280.47070234  .00011366  00000-0  48879-3 0  9995
2 43440  97.2330 335.3743 0011849  22.4069 102.5903 15.22737242246754
Epoch (UTC): 07 October 2022 11:17:48
Eccentricity: 0.0011849
inclination: 97.2330°
perigee height: 489 km
apogee height: 506 km
right ascension of ascending node: 335.3743°
argument of perigee: 22.4069°
revolutions per day: 15.22737242
mean anomaly at epoch: 102.5903°
orbit number at epoch: 24675

The dashed part of the orbit path shows where the satellite is in the earth's shadow,  

DLR